User: anonymous   Login
Location: Pulvis Stellarum Observatory
(41.6962°N, 71.4263°W)
Time: 01:54:12
(UTC-05:00)
Language:

Cosmos 1758 - Orbit

View from above orbital plane
View from above orbital plane
View from above satellite
View from above satellite

Ground track
Ground track

The orbit data is extracted from the following two-line orbital elements,

1 16791U 86046A   17016.14689612  .00000099  00000-0  50284-5 0  9992
2 16791  82.4702 180.1894 0015595 243.7505 116.2119 15.04280771662821
Epoch (UTC): 16 January 2017 03:31:31
Eccentricity: 0.0015595
inclination: 82.4702°
perigee height: 543 km
apogee height: 564 km
right ascension of ascending node: 180.1894°
argument of perigee: 243.7505°
revolutions per day: 15.04280771
mean anomaly at epoch: 116.2119°
orbit number at epoch: 66282

The dashed part of the orbit path shows where the satellite is in the earth's shadow,  

DLR